Theta_e
303 298 294 295 300 297 293 292 291 294 299 298 297 298 302 305 302 299 299 299 300 305 315 319 323 323 321 325 325 325 325 325 324 323 322 322 320 323 323 324 324 324 324 323
298 294 295 299 299 298 297 293 292 296 299 297 295 296 299 302 303 305 305 305 303 303 303 310 319 323 322 322 324 325 325 326 325 325 324 324 323 324 325 325 325 324 324 324
293 294 297 296 294 293 291 293 293 293 296 296 295 293 295 299 303 304 306 308 308 305 307 308 310 318 323 323 322 325 325 326 326 327 326 325 324 322 323 323 324 324 325 324
294 296 294 291 291 293 288 293 294 293 293 287 293 284 291 295 298 299 302 305 306 307 305 309 307 310 319 323 325 325 326 326 327 327 326 324 323 322 324 325 326 325 325 325
290 292 293 292 292 294 290 294 293 292 291 290 288 286 287 293 292 296 298 303 305 308 309 307 307 309 312 320 323 325 325 326 326 327 327 325 324 325 326 326 325 325 324 325
291 292 296 294 295 295 295 293 292 293 290 283 286 286 286 289 291 294 297 300 303 306 308 310 311 310 308 315 320 323 324 324 326 326 326 325 325 324 324 324 324 324 324 323
289 291 293 296 292 295 295 290 279 281 281 279 285 285 288 291 295 296 297 299 300 302 305 307 307 308 309 308 315 319 322 322 324 325 325 326 325 325 324 324 323 323 322 322
284 281 290 294 293 291 292 290 279 271 274 277 283 282 288 294 297 299 300 300 300 299 301 303 304 306 307 307 309 316 318 320 322 323 324 325 326 326 325 325 324 323 323 323
280 281 286 289 292 294 290 287 290 283 281 279 281 284 290 294 294 295 296 296 298 299 301 300 300 301 303 304 305 312 316 319 320 321 323 324 325 324 324 324 324 323 323 322
282 278 285 287 291 292 289 291 281 282 270 271 279 280 283 287 290 292 293 294 296 297 298 298 298 298 299 301 303 307 314 317 319 320 322 322 323 324 324 324 322 322 322 322
285 281 285 287 285 285 288 287 286 284 282 276 273 278 290 289 291 292 294 294 295 295 296 294 293 295 296 298 299 303 310 315 317 319 320 321 322 323 323 323 323 322 322 321
288 281 277 282 286 287 289 287 286 278 275 281 281 282 290 289 290 290 290 291 293 292 291 290 291 292 293 294 296 301 308 312 316 318 319 320 321 321 321 322 321 321 320 321
289 282 268 274 279 286 285 287 288 288 283 279 274 279 289 289 290 292 292 295 295 297 300 296 292 292 293 294 295 299 306 310 313 317 318 318 319 319 320 320 320 320 320 319
293 281 277 274 275 280 281 285 288 286 282 280 281 283 287 290 290 292 292 294 297 298 299 301 298 295 293 294 295 296 302 308 311 314 317 317 317 318 319 320 320 319 319 317
287 274 280 279 280 281 282 283 284 285 286 282 283 283 288 289 289 292 294 295 296 297 298 299 300 301 302 299 298 296 298 305 310 312 315 316 318 319 319 319 319 318 317 316
288 278 283 280 281 281 279 281 281 283 284 283 283 283 290 292 290 289 291 292 294 295 297 298 300 300 300 299 296 297 297 300 305 309 312 314 314 315 316 316 311 309 308 306
283 277 274 274 275 277 270 279 281 281 282 282 278 284 289 288 288 289 290 291 292 295 297 298 299 300 301 301 296 296 297 298 300 304 306 303 304 304 305 301 300 300 301 299
281 276 270 265 264 263 277 280 283 282 283 284 285 286 287 287 289 290 290 291 293 295 297 298 299 301 301 301 294 296 296 295 296 296 297 295 295 296 294 296 298 297 296 297
282 277 269 268 258 270 277 276 278 277 278 284 284 285 286 288 287 287 291 293 294 296 298 299 300 300 301 301 295 295 292 292 292 292 293 293 295 293 292 293 293 292 291 290
282 279 269 262 261 261 273 277 283 283 276 283 285 285 286 284 282 288 291 293 294 295 296 297 298 298 297 296 293 291 291 292 292 292 292 291 291 291 292 291 289 286 289 288
277 275 266 258 260 268 279 281 284 273 276 284 285 286 285 286 289 292 291 292 293 294 294 295 296 296 296 294 290 290 290 292 294 290 289 288 289 289 290 288 287 288 287 287
275 274 271 269 262 266 280 280 279 283 284 285 287 288 288 288 288 289 290 291 292 292 293 293 291 292 293 289 289 291 290 293 290 290 289 288 288 288 288 288 287 287 287 286
272 275 272 275 275 281 281 282 287 286 285 286 286 286 287 286 287 289 289 291 292 291 290 290 289 289 290 287 288 290 292 288 289 288 288 288 288 287 287 287 287 286 286 286
277 280 276 277 282 281 282 283 284 286 286 286 284 284 285 286 288 287 287 288 289 290 290 289 286 287 288 289 287 290 286 288 289 288 287 287 287 287 287 288 288 287 286 285
278 280 279 278 282 281 283 285 287 286 284 284 284 284 286 286 286 286 287 288 288 289 288 287 286 286 286 288 287 288 287 288 288 288 287 287 287 287 286 286 286 286 285 287
279 279 278 277 284 282 284 283 285 284 284 285 285 285 285 284 286 288 288 288 286 286 286 284 283 283 284 286 287 287 288 289 288 287 286 286 286 285 284 283 281 285 286 287
Wind_Speed
4 4 14 9 8 4 5 4 5 2 6 3 7 10 13 15 5 9 10 9 10 13 16 8 12 13 13 15 16 16 16 15 12 10 10 10 11 10 8 9 12 12 11 11
5 13 6 6 5 5 3 3 4 3 2 1 6 14 9 16 11 12 14 12 13 11 11 11 12 13 16 17 19 17 19 17 16 12 11 9 10 9 10 8 10 12 12 12
8 3 8 6 5 6 3 5 3 1 6 2 5 18 9 12 18 13 15 16 14 17 20 16 13 15 16 17 19 19 20 21 18 18 9 7 4 3 8 9 10 11 13 12
7 4 8 4 7 7 9 7 6 4 3 6 2 14 8 4 10 8 12 14 16 18 18 19 15 16 19 20 18 19 20 21 20 21 15 18 14 14 12 11 10 10 13 13
7 9 9 10 6 6 5 5 6 4 3 2 5 7 6 3 7 11 8 13 16 17 17 20 20 19 19 19 19 19 21 21 21 20 21 17 17 14 10 10 12 13 12 14
4 1 7 9 4 9 7 5 4 2 4 9 9 9 18 11 8 8 7 10 12 15 14 16 16 12 14 14 16 17 19 22 21 21 24 24 23 19 13 13 12 11 10 11
2 3 2 4 6 3 6 7 0 3 6 9 4 9 27 6 10 7 11 11 13 11 10 12 13 13 14 15 17 17 19 21 21 23 23 25 23 22 21 17 14 14 11 10
11 6 9 5 5 5 9 6 6 8 6 3 2 10 16 3 7 14 15 15 11 9 10 12 10 9 13 15 16 18 19 20 20 21 23 22 23 15 16 17 14 12 12 13
8 6 3 1 5 11 5 10 4 2 2 0 5 10 18 16 15 12 13 9 15 16 14 8 9 10 12 12 15 18 19 19 21 21 20 20 20 21 18 19 16 12 13 11
5 4 1 3 3 1 7 6 3 2 1 3 7 7 17 1 1 5 8 10 11 9 9 8 8 9 9 11 13 14 17 20 21 20 19 18 21 21 19 16 17 18 14 14
6 5 3 5 7 10 5 9 2 4 5 5 4 9 14 13 10 11 13 8 9 11 10 9 8 8 9 9 11 12 13 17 17 17 18 19 18 19 18 16 17 17 15 16
3 6 4 6 4 4 8 10 7 6 4 4 2 16 7 6 8 2 7 10 11 9 8 8 9 9 10 9 9 12 12 13 15 16 16 18 17 17 17 18 18 17 17 16
9 4 4 6 7 1 8 8 10 12 2 11 5 15 10 7 6 7 9 15 20 21 20 11 7 7 10 9 8 10 11 12 13 13 14 16 17 17 19 19 17 17 16 16
16 4 8 11 6 5 10 9 14 15 10 21 17 32 41 21 14 12 10 12 17 19 20 24 14 10 9 10 11 10 12 10 10 12 15 17 18 19 19 17 16 16 17 16
8 6 3 0 3 3 4 13 13 20 26 9 16 11 33 9 9 16 19 21 21 22 22 21 22 18 17 15 13 10 11 11 10 13 16 18 17 17 17 17 16 14 15 14
2 4 8 11 7 6 6 12 13 15 12 16 13 28 39 29 15 17 17 15 16 20 22 20 23 20 20 14 11 10 11 12 10 13 16 14 13 14 17 15 12 12 10 10
7 7 4 5 3 4 10 24 20 12 12 16 19 35 24 23 18 20 14 11 17 21 21 21 21 21 19 18 11 12 13 7 10 12 10 6 8 9 11 10 12 12 12 9
9 6 3 3 3 4 7 4 12 23 17 25 27 27 23 20 25 10 9 15 18 18 19 20 19 21 20 18 10 11 7 7 7 8 7 7 8 8 6 9 10 9 10 11
4 6 5 7 5 10 15 10 11 11 20 24 25 29 25 14 14 7 9 7 10 14 17 18 16 19 21 18 12 8 7 7 7 8 8 8 9 10 10 9 10 7 8 7
3 3 6 3 6 11 5 3 6 7 20 15 23 23 15 5 11 7 3 12 16 17 12 17 20 18 14 17 8 8 9 9 11 10 10 8 7 9 11 10 10 3 7 8
5 1 6 4 4 13 12 6 6 7 6 3 10 10 9 7 9 13 11 13 12 16 17 18 18 18 17 12 7 10 8 14 11 8 8 6 7 7 9 10 7 9 9 9
13 11 6 5 3 17 13 5 12 8 5 7 6 6 7 8 11 15 14 16 14 15 19 17 15 19 17 8 7 11 13 11 8 9 10 11 10 8 7 12 10 10 11 11
5 10 10 15 15 3 8 6 14 3 7 7 4 5 7 11 17 17 15 14 14 16 15 14 12 18 18 9 9 13 14 8 9 9 7 7 9 10 10 10 12 11 10 9
6 6 6 4 17 12 6 7 7 6 9 6 6 9 8 18 17 19 12 11 12 15 14 13 12 16 20 14 11 16 6 9 10 11 12 9 8 11 11 7 8 9 10 10
8 11 8 14 18 6 15 17 16 11 10 10 9 9 16 13 20 14 13 12 12 13 12 9 13 16 21 18 14 11 8 10 10 9 9 13 6 7 12 9 7 8 3 9
9 10 9 13 20 12 23 5 11 11 15 17 17 18 12 10 16 14 18 13 9 14 14 14 17 15 19 18 16 9 10 13 13 10 11 6 11 5 6 9 8 15 13 14
Wind_Direction
180 187 204 180 196 129 136 164 201 225 256 249 231 241 244 261 224 250 246 249 245 240 250 242 218 208 207 199 194 197 197 195 186 193 192 205 210 212 213 214 210 208 205 203
146 225 181 157 176 165 149 207 212 252 325 221 295 274 231 263 246 227 239 243 245 250 249 238 220 209 204 209 208 199 201 195 198 199 204 207 196 213 214 206 209 207 201 200
186 186 137 132 149 171 196 229 164 312 331 263 312 284 225 237 247 231 233 237 235 228 248 245 219 214 214 212 213 208 203 198 200 206 198 194 170 200 198 206 209 207 204 199
210 169 147 151 197 154 236 182 194 255 323 258 2 283 241 230 269 230 231 237 239 237 241 248 226 217 211 218 211 213 215 206 201 194 195 199 207 211 211 209 207 206 203 202
188 157 153 200 182 153 221 149 166 176 209 354 234 279 281 185 265 272 235 238 242 240 235 243 242 234 224 218 214 211 210 211 208 197 199 198 207 213 208 204 201 201 201 204
157 39 154 173 132 168 150 103 61 140 165 242 216 206 268 241 232 240 227 240 246 251 244 249 251 245 235 222 220 216 212 213 208 201 203 203 206 207 201 201 200 200 202 206
111 138 159 151 113 129 198 131 111 223 209 241 209 183 252 298 282 234 266 257 255 248 251 248 243 236 237 223 218 217 214 215 209 208 206 209 209 204 205 199 200 192 198 202
163 197 168 162 169 168 190 187 173 201 204 271 42 227 251 220 250 253 256 263 281 282 262 255 260 251 247 234 224 220 219 219 212 208 212 211 212 210 208 206 201 202 201 202
147 232 43 147 153 161 182 215 173 1 306 337 220 281 289 262 248 253 262 288 285 281 266 245 246 249 256 244 231 224 220 218 215 211 212 213 211 209 207 205 202 201 200 195
182 120 134 171 93 95 146 156 116 205 213 241 255 255 249 167 64 303 271 254 273 275 285 299 303 282 265 256 252 239 228 226 217 210 211 211 211 209 208 199 196 199 197 186
129 95 121 118 202 183 169 211 186 135 179 204 275 253 239 248 223 238 267 298 306 298 284 291 289 282 269 270 257 244 235 231 225 214 210 211 211 212 206 200 199 199 189 188
195 114 152 183 314 232 209 216 172 166 224 241 259 270 190 250 239 152 329 300 292 280 270 276 282 296 300 287 284 265 246 230 230 225 214 215 210 208 206 204 199 194 192 189
158 171 72 1 347 314 210 198 211 240 355 241 152 261 102 79 95 15 338 323 323 325 318 308 296 291 292 293 278 263 248 242 231 224 220 213 208 205 206 209 201 191 189 189
157 144 184 204 187 152 197 193 203 197 211 241 225 252 275 258 297 339 339 320 311 305 309 310 302 293 269 275 277 259 255 232 220 215 212 215 207 203 207 203 205 197 190 185
145 184 135 93 150 134 179 203 201 210 228 222 243 264 269 280 326 306 288 282 282 286 287 285 291 296 297 297 292 265 255 246 224 216 217 219 216 202 201 203 201 200 194 191
126 143 166 209 215 196 225 224 213 226 238 259 281 268 259 289 278 268 267 264 270 278 282 287 289 291 294 285 271 280 256 240 219 227 229 221 211 203 197 197 183 181 182 167
138 132 112 226 336 101 296 230 216 206 199 209 227 243 270 280 270 265 293 311 295 289 296 296 293 292 290 287 273 265 260 223 215 225 226 198 192 205 190 167 164 169 177 160
135 109 91 168 34 222 231 350 201 212 219 219 239 259 265 264 270 323 302 281 286 288 289 289 290 291 285 279 254 254 238 216 214 222 194 176 179 180 179 165 183 166 159 162
123 132 117 152 198 295 282 194 188 173 241 222 230 248 257 281 305 306 251 256 266 280 289 291 289 289 289 284 253 231 224 212 199 214 200 185 192 176 163 172 157 152 146 138
118 64 114 136 154 214 251 226 148 102 267 203 211 240 260 267 281 269 321 313 305 302 293 298 300 297 295 279 248 225 229 210 219 196 198 169 166 179 166 159 146 122 139 137
160 191 166 194 220 278 219 179 150 161 230 186 175 212 232 219 226 290 298 289 295 294 304 306 304 301 291 287 225 231 226 228 214 179 156 152 151 164 151 132 129 130 119 120
174 171 191 169 192 269 173 103 181 211 157 170 190 192 227 251 278 294 298 298 302 300 306 307 303 301 297 268 219 240 231 229 169 179 162 152 156 144 145 141 129 126 130 125
222 184 181 189 214 216 202 210 226 201 211 205 204 222 255 271 286 292 287 294 295 296 291 295 295 298 298 274 226 245 250 171 163 162 143 143 157 143 143 148 138 131 129 131
240 181 226 97 244 232 244 258 248 220 235 217 226 226 227 272 281 286 277 273 283 290 290 296 300 298 296 297 242 241 204 173 166 172 143 144 180 145 133 146 145 141 141 137
185 157 208 253 269 336 248 226 239 248 258 275 265 241 245 256 274 274 269 274 277 284 291 287 289 292 288 293 265 236 194 173 174 171 154 143 151 182 133 131 143 136 104 151
174 198 193 236 249 220 263 208 233 245 259 259 259 273 267 217 257 267 274 278 271 283 290 293 291 286 285 286 274 221 188 176 162 166 144 164 129 151 127 126 112 105 113 122